Weather History for Nouasseur, Morocco

Change the Weather History Date:

Monday, December 2, 2013

  Actual Average Record
Temperature  
Mean Temperature 50 °F -  
Max Temperature 66 °F 63 °F 78 °F (1999)
Min Temperature 35 °F 45 °F 35 °F (2013)
Degree Days  
Heating Degree Days 14    
Moisture  
Dew Point 39 °F    
Average Humidity 59    
Maximum Humidity 93    
Minimum Humidity 21    
Precipitation  
Precipitation 0.00 in - - ()
Sea Level Pressure  
Sea Level Pressure 29.98 in    
Wind  
Wind Speed 3 mph ()    
Max Wind Speed 9 mph    
Max Gust Speed -    
Visibility 5.1 miles    
Events      
Averages and records for this station are not official NWS values.
T = Trace of Precipitation, MM = Missing Value Source: Averaged Metar Reports

Daily Weather History Graph

Daily Weather History Graph

Search for Another Location

Airport:

Trip Planner

Search our weather history database for the weather conditions in past years. The results will help you decide how hot, cold, wet, or windy it might be!

Date:

Astronomy

Dec. 02, 2013 Rise Set
Actual Time 7:17 AM WET 5:22 PM WET
Civil Twilight 6:49 AM WET 5:49 PM WET
Nautical Twilight 6:19 AM WET 6:20 PM WET
Astronomical Twilight 5:49 AM WET 6:50 PM WET
Moon 6:29 AM WET (12/2) 5:10 PM WET (12/2)
Length of Visible Light 10h 59m
Length of Day
10h 05m
Waning Crescent, 0% of the Moon is Illuminated
Dec 2
Waning Crescent
Dec 3
New
Dec 9
First Quarter
Dec 17
Full
Dec 25
Last Quarter

Hourly Weather History & Observations

Time (WET) Temp. Windchill Dew Point Humidity Pressure Visibility Wind Dir Wind Speed Gust Speed Precip Events Conditions
7:30 AM 35.6 °F 32.8 °F 32.0 °F 87% 29.92 in 3.1 mi South 3.5 mph - N/A   Partly Cloudy
8:00 AM 37.4 °F - 33.8 °F 87% 29.95 in 5.0 mi Calm Calm - N/A   Partly Cloudy
8:30 AM 39.2 °F - 37.4 °F 93% 29.95 in 4.3 mi Calm Calm - N/A   Partly Cloudy
9:00 AM 45 °F - 41 °F 82% 30.00 in 3 mi Calm Calm - -   Mist
9:00 AM 44.6 °F - 41.0 °F 87% 29.98 in - Calm Calm - N/A   Partly Cloudy
9:30 AM 48.2 °F - 44.6 °F 87% 29.98 in 5.6 mi Calm Calm - N/A   Partly Cloudy
10:00 AM 51.8 °F - 44.6 °F 76% 29.98 in 6.2 mi Calm Calm - N/A   Partly Cloudy
10:30 AM 55.4 °F - 42.8 °F 63% 29.98 in - Variable 2.3 mph - N/A   Clear
11:00 AM 57.2 °F - 41.0 °F 55% 29.98 in - Variable 1.2 mph - N/A   Clear
11:30 AM 59.0 °F - 39.2 °F 48% 29.98 in - Variable 2.3 mph - N/A   Clear
12:00 PM 61 °F - 38 °F 31% 29.96 in 6 mi WSW 2.3 mph - -   Clear
12:00 PM 60.8 °F - 37.4 °F 42% 29.95 in - Variable 2.3 mph - N/A   Clear
12:30 PM 62.6 °F - 39.2 °F 42% 29.95 in - Variable 2.3 mph - N/A   Clear
1:00 PM 64.4 °F - 37.4 °F 37% 29.95 in - WNW 3.5 mph - N/A   Clear
1:30 PM 64.4 °F - 37.4 °F 37% 29.95 in - NW 3.5 mph - N/A   Clear
2:00 PM 64.4 °F - 33.8 °F 32% 29.98 in - North 4.6 mph - N/A   Clear
2:30 PM 66.2 °F - 37.4 °F 35% 29.95 in - Variable 3.5 mph - N/A   Clear
3:00 PM 66 °F - 35 °F 21% 29.94 in 6 mi NE 2.3 mph - -   Clear
3:00 PM 66.2 °F - 35.6 °F 32% 29.95 in - NE 2.3 mph - N/A   Clear
3:30 PM 66.2 °F - 37.4 °F 35% 29.95 in - Variable 1.2 mph - N/A   Clear
4:00 PM 64.4 °F - 42.8 °F 45% 29.95 in - NNE 8.1 mph - N/A   Clear
4:30 PM 62.6 °F - 41.0 °F 45% 29.95 in - NNE 9.2 mph - N/A   Clear
5:00 PM 60.8 °F - 41.0 °F 48% 29.98 in - North 9.2 mph - N/A   Clear
5:30 PM 59.0 °F - 41.0 °F 51% 29.98 in - NNE 6.9 mph - N/A   Clear
6:00 PM 57 °F - 40 °F 43% 29.99 in 6 mi NNE 5.8 mph - -  
6:00 PM 57.2 °F - 41.0 °F 55% 29.98 in - NNE 5.8 mph - N/A   Clear
6:30 PM 55.4 °F - 41.0 °F 58% 30.01 in - NE 4.6 mph - N/A   Clear
7:00 PM 55.4 °F - 39.2 °F 54% 30.01 in - NNE 5.8 mph - N/A   Clear
7:30 PM 53.6 °F - 41.0 °F 62% 30.01 in - NNE 4.6 mph - N/A   Clear
8:00 PM 53.6 °F - 42.8 °F 67% 30.01 in - NE 4.6 mph - N/A   Clear
8:30 PM 51.8 °F - 44.6 °F 76% 30.04 in - NE 5.8 mph - N/A   Clear
9:00 PM 48 °F - 39 °F 63% 30.05 in 6 mi SSE 6.9 mph - -  
9:00 PM 48.2 °F - 39.2 °F 71% 30.04 in - SSE 6.9 mph - N/A   Clear
9:30 PM 46.4 °F 43.5 °F 39.2 °F 76% 30.04 in - SSE 5.8 mph - N/A   Clear
10:00 PM 46.4 °F 44.3 °F 39.2 °F 76% 30.04 in - South 4.6 mph - N/A   Clear
10:30 PM 44.6 °F 42.2 °F 37.4 °F 76% 30.04 in - South 4.6 mph - N/A   Clear
11:00 PM 44.6 °F - 39.2 °F 81% 30.04 in - South 2.3 mph - N/A   Clear
11:30 PM 44.6 °F 42.2 °F 37.4 °F 76% 30.04 in - South 4.6 mph - N/A   Clear